When you browse on this site, cookies collect data to enhance your experience and personalize the content and advertising you see.
Visit our Privacy Policy to learn more. By continuing to use the site, you agree to this use of cookies and data.
  • In Hungary
  • List of Countries
  • For 7 days
  • Water Temperature
  • Satellite Maps
  • Weather Map
  • News
  • Weather Widgets
  • user-avatar
    Login

    Hourly Weather Kabwe

    Today, 24 April, Wednesday

    Time Temperature Precipitation Wind Pressure Humidity
    00:00 +18°C° 0 mm 1 mps 663 mmHg 80%
    01:00 +18°C° 0 mm 1 mps 663 mmHg 82%
    02:00 +18°C° 0 mm 1 mps 662 mmHg 85%
    03:00 +16°C° 0 mm 1 mps 662 mmHg 86%
    04:00 +16°C° 0 mm 1 mps 662 mmHg 88%
    05:00 +16°C° 0 mm 1 mps 662 mmHg 89%
    06:00 +17°C° 0 mm 2 mps 663 mmHg 85%
    07:00 +18°C° 0 mm 2 mps 663 mmHg 81%
    08:00 +20°C° 0 mm 2 mps 664 mmHg 75%
    09:00 +21°C° 0 mm 2 mps 664 mmHg 70%
    10:00 +24°C° 0 mm 3 mps 664 mmHg 66%
    11:00 +26°C° 0 mm 3 mps 664 mmHg 61%
    12:00 +26°C° 0 mm 3 mps 664 mmHg 58%
    13:00 +27°C° 0 mm 2 mps 663 mmHg 56%
    14:00 +28°C° 0 mm 2 mps 663 mmHg 52%
    15:00 +27°C° 0 mm 2 mps 663 mmHg 56%
    16:00 +27°C° 0 mm 2 mps 662 mmHg 59%
    17:00 +26°C° 0 mm 1 mps 662 mmHg 62%
    18:00 +24°C° 0 mm 1 mps 662 mmHg 66%
    19:00 +22°C° 0 mm 1 mps 662 mmHg 70%
    20:00 +21°C° 0 mm 1 mps 662 mmHg 74%
    21:00 +20°C° 0 mm 1 mps 662 mmHg 75%
    22:00 +20°C° 0 mm 1 mps 662 mmHg 77%
    23:00 +19°C° 0 mm 1 mps 662 mmHg 78%

    Tomorrow, 25 April, Thursday

    Time Temperature Precipitation Wind Pressure Humidity
    00:00 +19°C° 0 mm 1 mps 662 mmHg 80%
    01:00 +18°C° 0 mm 1 mps 662 mmHg 81%
    02:00 +18°C° 0 mm 1 mps 662 mmHg 83%
    03:00 +18°C° 0 mm 1 mps 662 mmHg 85%
    04:00 +16°C° 0 mm 1 mps 662 mmHg 87%
    05:00 +16°C° 0 mm 1 mps 662 mmHg 89%
    06:00 +18°C° 0 mm 1 mps 662 mmHg 85%
    07:00 +19°C° 0 mm 1 mps 663 mmHg 82%
    08:00 +21°C° 0 mm 1 mps 663 mmHg 79%
    09:00 +23°C° 0 mm 2 mps 664 mmHg 72%
    10:00 +24°C° 0 mm 2 mps 664 mmHg 65%
    11:00 +26°C° 0 mm 2 mps 665 mmHg 58%
    12:00 +27°C° 0 mm 2 mps 664 mmHg 55%
    13:00 +28°C° 0 mm 2 mps 663 mmHg 52%
    14:00 +29°C° 0 mm 2 mps 663 mmHg 49%
    15:00 +28°C° 0 mm 2 mps 662 mmHg 52%
    16:00 +27°C° 0 mm 1 mps 662 mmHg 56%
    17:00 +27°C° 0 mm 1 mps 662 mmHg 60%
    18:00 +25°C° 0 mm 1 mps 662 mmHg 64%
    19:00 +23°C° 0 mm 1 mps 662 mmHg 67%
    20:00 +21°C° 0 mm 1 mps 662 mmHg 71%
    21:00 +21°C° 0 mm 1 mps 662 mmHg 73%
    22:00 +20°C° 0 mm 1 mps 662 mmHg 75%
    23:00 +20°C° 0 mm 1 mps 662 mmHg 76%

    Day after tomorrow, 26 April, Friday

    Time Temperature Precipitation Wind Pressure Humidity
    00:00 +17°C° 0 mm 0 mps 661 mmHg 78%
    01:00 +17°C° 0 mm 0 mps 661 mmHg 80%
    02:00 +17°C° 0 mm 0 mps 661 mmHg 81%
    03:00 +16°C° 0 mm 0 mps 661 mmHg 82%
    04:00 +18°C° 0 mm 1 mps 661 mmHg 83%
    05:00 +18°C° 0 mm 1 mps 661 mmHg 84%
    06:00 +19°C° 0 mm 1 mps 661 mmHg 81%
    07:00 +20°C° 0 mm 1 mps 662 mmHg 78%
    08:00 +22°C° 0 mm 1 mps 663 mmHg 75%
    09:00 +24°C° 0 mm 1 mps 663 mmHg 68%
    10:00 +25°C° 0 mm 2 mps 664 mmHg 61%
    11:00 +27°C° 0 mm 2 mps 664 mmHg 54%
    12:00 +28°C° 0 mm 2 mps 663 mmHg 52%
    13:00 +29°C° 0 mm 2 mps 663 mmHg 50%
    14:00 +29°C° 0 mm 2 mps 662 mmHg 48%
    15:00 +29°C° 0 mm 2 mps 662 mmHg 52%
    16:00 +28°C° 0 mm 2 mps 661 mmHg 56%
    17:00 +27°C° 0 mm 1 mps 661 mmHg 59%
    18:00 +26°C° 0 mm 1 mps 661 mmHg 62%
    19:00 +24°C° 0 mm 1 mps 661 mmHg 65%
    20:00 +22°C° 0 mm 1 mps 661 mmHg 68%
    21:00 +22°C° 0 mm 1 mps 661 mmHg 70%
    22:00 +21°C° 0 mm 1 mps 661 mmHg 72%
    23:00 +20°C° 0 mm 1 mps 662 mmHg 74%

    27 April, Saturday

    Time Temperature Precipitation Wind Pressure Humidity
    00:00 +20°C° 0 mm 1 mps 661 mmHg 76%
    01:00 +20°C° 0 mm 1 mps 661 mmHg 78%
    02:00 +19°C° 0 mm 1 mps 661 mmHg 80%
    03:00 +19°C° 0 mm 1 mps 661 mmHg 81%
    04:00 +19°C° 0 mm 1 mps 661 mmHg 82%
    05:00 +19°C° 0 mm 1 mps 661 mmHg 83%
    06:00 +20°C° 0 mm 1 mps 661 mmHg 80%
    07:00 +20°C° 0 mm 2 mps 662 mmHg 77%
    08:00 +21°C° 0 mm 2 mps 663 mmHg 73%
    09:00 +24°C° 0 mm 2 mps 663 mmHg 68%
    10:00 +25°C° 0 mm 3 mps 664 mmHg 62%
    11:00 +27°C° 0 mm 3 mps 664 mmHg 57%
    12:00 +28°C° 0 mm 3 mps 664 mmHg 54%
    13:00 +28°C° 0 mm 3 mps 663 mmHg 52%
    14:00 +29°C° 0 mm 3 mps 662 mmHg 49%
    15:00 +28°C° 0 mm 2 mps 662 mmHg 53%
    16:00 +28°C° 0 mm 2 mps 662 mmHg 56%
    17:00 +27°C° 0 mm 2 mps 661 mmHg 60%
    18:00 +25°C° 0 mm 2 mps 662 mmHg 63%
    19:00 +23°C° 0 mm 2 mps 662 mmHg 67%
    20:00 +21°C° 0 mm 2 mps 662 mmHg 70%
    21:00 +20°C° 0 mm 2 mps 662 mmHg 72%
    22:00 +20°C° 0 mm 2 mps 662 mmHg 73%
    23:00 +20°C° 0 mm 1 mps 663 mmHg 75%

    28 April, Sunday

    Time Temperature Precipitation Wind Pressure Humidity
    00:00 +20°C° 0 mm 1 mps 662 mmHg 77%
    01:00 +19°C° 0 mm 1 mps 662 mmHg 78%
    02:00 +19°C° 0 mm 1 mps 662 mmHg 80%
    03:00 +19°C° 0 mm 1 mps 662 mmHg 81%
    04:00 +17°C° 0 mm 2 mps 662 mmHg 83%
    05:00 +17°C° 0 mm 2 mps 662 mmHg 84%
    06:00 +18°C° 0 mm 2 mps 663 mmHg 81%
    07:00 +19°C° 0 mm 3 mps 664 mmHg 78%
    08:00 +20°C° 0 mm 4 mps 664 mmHg 75%
    09:00 +22°C° 0 mm 4 mps 665 mmHg 69%
    10:00 +23°C° 0 mm 4 mps 665 mmHg 64%
    11:00 +26°C° 0 mm 4 mps 665 mmHg 58%
    12:00 +26°C° 0 mm 4 mps 664 mmHg 55%
    13:00 +27°C° 0 mm 4 mps 664 mmHg 52%
    14:00 +28°C° 0 mm 4 mps 663 mmHg 49%
    15:00 +27°C° 0 mm 3 mps 663 mmHg 54%
    16:00 +26°C° 0 mm 3 mps 663 mmHg 59%
    17:00 +25°C° 0 mm 2 mps 662 mmHg 64%
    18:00 +24°C° 0 mm 2 mps 663 mmHg 67%
    19:00 +21°C° 0 mm 2 mps 663 mmHg 69%
    20:00 +20°C° 0 mm 2 mps 663 mmHg 72%
    21:00 +19°C° 0 mm 2 mps 663 mmHg 74%
    22:00 +19°C° 0 mm 2 mps 663 mmHg 77%
    23:00 +18°C° 0 mm 2 mps 663 mmHg 79%

    29 April, Monday

    Time Temperature Precipitation Wind Pressure Humidity
    00:00 +18°C° 0 mm 2 mps 663 mmHg 81%
    01:00 +17°C° 0 mm 2 mps 663 mmHg 84%
    02:00 +17°C° 0 mm 2 mps 663 mmHg 86%
    03:00 +17°C° 0 mm 2 mps 663 mmHg 87%
    04:00 +16°C° 0 mm 2 mps 663 mmHg 89%
    05:00 +16°C° 0 mm 2 mps 663 mmHg 91%
    06:00 +17°C° 0 mm 3 mps 664 mmHg 85%
    07:00 +17°C° 0 mm 4 mps 664 mmHg 80%
    08:00 +17°C° 0 mm 5 mps 665 mmHg 75%
    09:00 +20°C° 0 mm 4 mps 665 mmHg 68%
    10:00 +21°C° 0 mm 4 mps 665 mmHg 60%
    11:00 +23°C° 0 mm 4 mps 666 mmHg 53%
    12:00 +25°C° 0 mm 4 mps 665 mmHg 50%
    13:00 +25°C° 0 mm 4 mps 664 mmHg 47%
    14:00 +26°C° 0 mm 3 mps 664 mmHg 44%
    15:00 +25°C° 0 mm 3 mps 663 mmHg 47%
    16:00 +25°C° 0 mm 2 mps 663 mmHg 51%
    17:00 +24°C° 0 mm 2 mps 663 mmHg 55%
    18:00 +21°C° 0 mm 2 mps 663 mmHg 58%
    19:00 +20°C° 0 mm 2 mps 663 mmHg 60%
    20:00 +18°C° 0 mm 2 mps 663 mmHg 63%
    21:00 +17°C° 0 mm 2 mps 663 mmHg 66%
    22:00 +17°C° 0 mm 2 mps 663 mmHg 68%
    23:00 +16°C° 0 mm 2 mps 663 mmHg 71%
    Show more